Lawrence, KS

9:41 PM CST on February 21, 2018 (GMT -0600)
Lawrence Municipal

Weather History for KLWC - June, 2014

Change the Weather History Date:

Friday, June 20, 2014

  Actual Average Record
Temperature  
Mean Temperature 82 °F 75 °F  
Max Temperature 94 °F 86 °F 97 °F (2016)
Min Temperature 70 °F 64 °F 59 °F (1999)
Degree Days  
Heating Degree Days 0 0  
Month to date heating degree days 0 6  
Since 1 June heating degree days 0 6  
Since 1 July heating degree days 5635 5090  
Cooling Degree Days 17 10  
Month to date cooling degree days 187 163  
Year to date cooling degree days 380 282  
Since 1 June cooling degree days 187 163  
Growing Degree Days 32 (Base 50)    
Moisture  
Dew Point 71 °F    
Average Humidity 73    
Maximum Humidity 97    
Minimum Humidity 49    
Precipitation  
Precipitation 0.00 in 0.16 in 2.45 in (2000)
Month to date precipitation 8.09 3.93  
Year to date precipitation 15.75 17.82  
Sea Level Pressure  
Sea Level Pressure 29.97 in    
Wind  
Wind Speed 5 mph (SSE)    
Max Wind Speed 17 mph    
Max Gust Speed 24 mph    
Visibility 9 miles    
Events      
T = Trace of Precipitation, MM = Missing Value Source: NWS Daily Summary

Daily Weather History Graph

Daily Weather History Graph

Search for Another Location

Airport or City:

Trip Planner

Search our weather history database for the weather conditions in past years. The results will help you decide how hot, cold, wet, or windy it might be!

Date:

Astronomy

Jun. 20, 2014 Rise Set
Actual Time 5:55 AM CDT 8:49 PM CDT
Civil Twilight 5:23 AM CDT 9:21 PM CDT
Nautical Twilight 4:42 AM CDT 10:02 PM CDT
Astronomical Twilight 3:55 AM CDT 10:49 PM CDT
Moon 1:31 AM CDT (6/20) 2:28 PM CDT (6/20)
Length of Visible Light 15h 58m
Length of Day
14h 54m
Last Quarter, 40% of the Moon is Illuminated
Jun 20
Last Quarter
Jun 27
New
Jul 5
First Quarter
Jul 12
Full
Jul 18
Last Quarter

Hourly Weather History & Observations

Time (CDT) Temp. Heat Index Dew Point Humidity Pressure Visibility Wind Dir Wind Speed Gust Speed Precip Events Conditions
12:52 AM 75.0 °F - 70.0 °F 84% 29.97 in 10.0 mi SE 3.5 mph - N/A   Clear
1:52 AM 73.0 °F - 70.0 °F 90% 29.97 in 10.0 mi ESE 4.6 mph - N/A   Clear
2:52 AM 71.1 °F - 69.1 °F 93% 29.97 in 10.0 mi Calm Calm - N/A   Clear
3:52 AM 71.1 °F - 69.1 °F 93% 29.97 in 7.0 mi SSE 3.5 mph - N/A   Clear
4:52 AM 71.1 °F - 69.1 °F 93% 29.98 in 9.0 mi Calm Calm - N/A   Clear
5:52 AM 70.0 °F - 68.0 °F 93% 29.99 in 6.0 mi ESE 3.5 mph - N/A   Clear
6:11 AM 70.0 °F - 68.0 °F 93% 30.01 in 2.5 mi East 3.5 mph - N/A   Clear
6:19 AM 70.0 °F - 68.0 °F 93% 30.01 in 4.0 mi ESE 3.5 mph - N/A   Clear
6:52 AM 72.0 °F - 70.0 °F 93% 30.00 in 5.0 mi Calm Calm - N/A   Clear
7:52 AM 75.9 °F - 72.0 °F 87% 30.01 in 10.0 mi SW 5.8 mph - N/A   Clear
9:52 AM 82.0 °F 87.9 °F 73.9 °F 76% 30.02 in 10.0 mi WNW 4.6 mph - N/A   Clear
10:52 AM 82.9 °F 89.4 °F 73.9 °F 74% 30.01 in 10.0 mi WNW 3.5 mph - N/A   Clear
11:52 AM 88.0 °F 96.5 °F 73.9 °F 63% 30.01 in 10.0 mi NNW 4.6 mph - N/A   Clear
12:52 PM 88.0 °F 95.6 °F 73.0 °F 61% 29.99 in 10.0 mi ESE 3.5 mph - N/A   Clear
1:52 PM 90.0 °F 97.9 °F 73.0 °F 57% 29.99 in 10.0 mi Calm Calm - N/A   Mostly Cloudy
2:52 PM 91.0 °F 98.2 °F 72.0 °F 53% 29.97 in 10.0 mi West 5.8 mph - N/A   Clear
3:52 PM 93.0 °F 101.9 °F 73.0 °F 52% 29.96 in 10.0 mi Variable 4.6 mph - N/A   Scattered Clouds
4:52 PM 93.0 °F 100.1 °F 71.1 °F 49% 29.94 in 10.0 mi SSW 6.9 mph - N/A   Clear
5:52 PM 91.0 °F 98.2 °F 72.0 °F 53% 29.91 in 10.0 mi SSE 8.1 mph - N/A   Partly Cloudy
6:52 PM 89.1 °F 95.0 °F 71.1 °F 55% 29.91 in 10.0 mi SSE 10.4 mph - N/A   Clear
7:52 PM 86.0 °F 93.0 °F 73.0 °F 65% 29.91 in 10.0 mi SSE 8.1 mph - N/A   Clear
8:52 PM 81.0 °F 84.4 °F 70.0 °F 69% 29.91 in 10.0 mi SSE 8.1 mph - N/A   Clear
9:52 PM 78.1 °F - 69.1 °F 74% 29.92 in 10.0 mi SE 8.1 mph - N/A   Clear
10:52 PM 75.0 °F - 70.0 °F 84% 29.93 in 10.0 mi ESE 4.6 mph - N/A   Clear
11:52 PM 73.0 °F - 69.1 °F 87% 29.94 in 10.0 mi SE 6.9 mph - N/A   Clear